Location: Bidart
(43.4376°N, 1.5913°W)
Time: 15:03:02
(UTC+00:00)

Cosmos 2366 rocket - Pass Details

Date: 19 May 2025
Orbit: 954 x 996 km, 82.9° (Epoch: 18 June)

Event Time Altitude Azimuth Distance (km) Brightness Sun altitude
Rises 21:08:46 0° 356° (N) 3,725 7.9 -15.1°
Reaches altitude 10° 21:11:23 10° 1° (N) 2,771 7.1 -15.4°
Maximum altitude 21:17:36 53° 78° (ENE) 1,205 4.3 -16.1°
Enters shadow 21:21:11 25° 144° (SE) 1,878 4.9 -16.5°
